Location: Great Malvern
(52.1167°N, 2.3167°W)
Time: 06:42:55
(UTC+00:00)

USA 234 - Pass Details

Date: 18 September 2020
Orbit: 1102 x 1106 km, 123.0° (Epoch: 16 October)

Event Time Altitude Azimuth Distance (km) Brightness Sun altitude
Rises 22:00:55 0° 63° (ENE) 3,926 6.1 -30.6°
Enters shadow 22:03:22 10° 63° (ENE) 2,979 5.4 -30.8°
Exits shadow 22:06:55 35° 59° (ENE) 1,702 4.1 -31.1°
Maximum altitude 22:09:57 81° 338° (NNW) 1,122 3.2 -31.4°
Drops below altitude 10° 22:16:30 10° 252° (WSW) 2,962 5.6 -32.0°
Sets 22:18:59 0° 251° (WSW) 3,919 6.3 -32.2°
